Time,TemperatureF,DewpointF,PressureIn,WindDirection,WindDirectionDegrees,WindSpeedMPH,WindSpeedGustMPH,Humidity,HourlyPrecipIn,Conditions,Clouds,dailyrainin,SoftwareType,DateUTC
2013-07-10 00:02:00,89.1,58.6,28.50,South,180,2.0,7.0,36,0.00,,,0.00,meteohub,2013-07-10 05:02:00,
2013-07-10 00:07:00,88.9,57.7,28.49,SW,225,5.0,5.0,35,0.00,,,0.00,meteohub,2013-07-10 05:07:00,
2013-07-10 00:12:00,89.1,57.9,28.49,SE,135,3.0,5.0,35,0.00,,,0.00,meteohub,2013-07-10 05:12:00,
2013-07-10 00:17:00,88.7,58.3,28.50,East,90,1.0,6.0,36,0.00,,,0.00,meteohub,2013-07-10 05:17:00,
2013-07-10 00:22:00,88.7,58.3,28.49,ENE,68,1.0,6.0,36,0.00,,,0.00,meteohub,2013-07-10 05:22:00,
2013-07-10 00:27:00,88.2,57.9,28.49,SE,135,4.0,6.0,36,0.00,,,0.00,meteohub,2013-07-10 05:27:00,
2013-07-10 00:32:00,88.3,58.8,28.50,SE,135,1.0,5.0,37,0.00,,,0.00,meteohub,2013-07-10 05:32:00,
2013-07-10 00:37:00,88.0,58.5,28.50,South,180,1.0,5.0,37,0.00,,,0.00,meteohub,2013-07-10 05:37:00,
2013-07-10 00:42:00,88.0,58.5,28.50,SE,135,1.0,5.0,37,0.00,,,0.00,meteohub,2013-07-10 05:42:00,
2013-07-10 00:47:00,87.8,58.3,28.51,South,180,3.0,3.0,37,0.00,,,0.00,meteohub,2013-07-10 05:47:00,
2013-07-10 00:52:00,87.8,59.0,28.50,SE,135,1.0,3.0,38,0.00,,,0.00,meteohub,2013-07-10 05:52:00,
2013-07-10 00:57:00,87.3,58.6,28.50,SE,135,1.0,3.0,38,0.00,,,0.00,meteohub,2013-07-10 05:57:00,
2013-07-10 01:02:00,87.3,58.6,28.50,South,180,3.0,6.0,38,0.00,,,0.00,meteohub,2013-07-10 06:02:00,
2013-07-10 01:07:00,87.3,58.6,28.50,SE,135,1.0,6.0,38,0.00,,,0.00,meteohub,2013-07-10 06:07:00,
2013-07-10 01:12:00,87.1,58.5,28.50,SE,135,5.0,6.0,38,0.00,,,0.00,meteohub,2013-07-10 06:12:00,
2013-07-10 01:17:00,87.3,58.6,28.51,SE,135,1.0,4.0,38,0.00,,,0.00,meteohub,2013-07-10 06:17:00,
2013-07-10 01:22:00,87.3,58.6,28.50,SW,225,1.0,5.0,38,0.00,,,0.00,meteohub,2013-07-10 06:22:00,
2013-07-10 01:27:00,86.9,58.3,28.50,East,90,1.0,5.0,38,0.00,,,0.00,meteohub,2013-07-10 06:27:00,
2013-07-10 01:32:00,86.5,58.6,28.51,South,180,2.0,4.0,39,0.00,,,0.00,meteohub,2013-07-10 06:32:00,
2013-07-10 01:37:00,86.2,58.3,28.51,SE,135,1.0,2.0,39,0.00,,,0.00,meteohub,2013-07-10 06:37:00,
2013-07-10 01:42:00,86.2,59.0,28.51,SE,135,1.0,2.0,40,0.00,,,0.00,meteohub,2013-07-10 06:42:00,
2013-07-10 01:47:00,86.2,59.0,28.50,SE,135,1.0,2.0,40,0.00,,,0.00,meteohub,2013-07-10 06:47:00,
2013-07-10 01:52:00,85.8,58.6,28.51,South,180,2.0,2.0,40,0.00,,,0.00,meteohub,2013-07-10 06:52:00,
2013-07-10 01:57:00,85.6,58.5,28.51,East,90,1.0,2.0,40,0.00,,,0.00,meteohub,2013-07-10 06:57:00,
2013-07-10 02:02:00,86.0,58.8,28.50,South,180,2.0,2.0,40,0.00,,,0.00,meteohub,2013-07-10 07:02:00,
2013-07-10 02:07:00,85.8,58.6,28.50,SE,135,2.0,3.0,40,0.00,,,0.00,meteohub,2013-07-10 07:07:00,
2013-07-10 02:12:00,85.8,58.6,28.50,SE,135,1.0,4.0,40,0.00,,,0.00,meteohub,2013-07-10 07:12:00,
2013-07-10 02:17:00,85.5,58.5,28.50,NE,45,2.0,4.0,40,0.00,,,0.00,meteohub,2013-07-10 07:17:00,
2013-07-10 02:23:00,85.5,59.0,28.50,East,90,4.0,4.0,41,0.00,,,0.00,meteohub,2013-07-10 07:23:00,
2013-07-10 02:28:00,85.1,58.8,28.50,SSE,158,4.0,4.0,41,0.00,,,0.00,meteohub,2013-07-10 07:28:00,
2013-07-10 02:33:00,84.9,58.6,28.50,East,90,1.0,4.0,41,0.00,,,0.00,meteohub,2013-07-10 07:33:00,
2013-07-10 02:38:00,84.7,59.2,28.50,South,180,4.0,4.0,42,0.00,,,0.00,meteohub,2013-07-10 07:38:00,
2013-07-10 02:43:00,84.7,59.2,28.50,South,180,2.0,4.0,42,0.00,,,0.00,meteohub,2013-07-10 07:43:00,
2013-07-10 02:48:00,84.4,58.8,28.50,East,90,4.0,4.0,42,0.00,,,0.00,meteohub,2013-07-10 07:48:00,
2013-07-10 02:53:00,84.4,58.8,28.50,South,180,1.0,4.0,42,0.00,,,0.00,meteohub,2013-07-10 07:53:00,
2013-07-10 02:58:00,84.4,59.4,28.50,South,180,3.0,4.0,43,0.00,,,0.00,meteohub,2013-07-10 07:58:00,
2013-07-10 03:03:00,84.0,59.2,28.50,SSE,158,1.0,4.0,43,0.00,,,0.00,meteohub,2013-07-10 08:03:00,
2013-07-10 03:08:00,84.2,59.4,28.49,SE,135,2.0,4.0,43,0.00,,,0.00,meteohub,2013-07-10 08:08:00,
2013-07-10 03:13:00,83.7,58.8,28.50,SE,135,2.0,4.0,43,0.00,,,0.00,meteohub,2013-07-10 08:13:00,
2013-07-10 03:18:00,83.8,59.0,28.50,South,180,1.0,4.0,43,0.00,,,0.00,meteohub,2013-07-10 08:18:00,
2013-07-10 03:23:00,83.8,59.0,28.50,SSE,158,4.0,4.0,43,0.00,,,0.00,meteohub,2013-07-10 08:23:00,
2013-07-10 03:28:00,83.8,59.0,28.50,SE,135,1.0,4.0,43,0.00,,,0.00,meteohub,2013-07-10 08:28:00,
2013-07-10 03:33:00,83.7,58.8,28.50,South,180,4.0,5.0,43,0.00,,,0.00,meteohub,2013-07-10 08:33:00,
2013-07-10 03:38:00,83.7,58.8,28.51,SE,135,3.0,5.0,43,0.00,,,0.00,meteohub,2013-07-10 08:38:00,
2013-07-10 03:43:00,83.7,58.8,28.51,West,270,4.0,4.0,43,0.00,,,0.00,meteohub,2013-07-10 08:43:00,
2013-07-10 03:48:00,83.5,59.4,28.51,SW,225,1.0,6.0,44,0.00,,,0.00,meteohub,2013-07-10 08:48:00,
2013-07-10 03:53:00,83.3,59.2,28.51,SE,135,2.0,6.0,44,0.00,,,0.00,meteohub,2013-07-10 08:53:00,
2013-07-10 03:58:00,83.3,59.2,28.51,SE,135,1.0,4.0,44,0.00,,,0.00,meteohub,2013-07-10 08:58:00,
2013-07-10 04:03:00,83.1,59.0,28.51,SE,135,3.0,5.0,44,0.00,,,0.00,meteohub,2013-07-10 09:03:00,
2013-07-10 04:08:00,83.1,59.0,28.51,SE,135,2.0,5.0,44,0.00,,,0.00,meteohub,2013-07-10 09:08:00,
2013-07-10 04:13:00,82.9,59.4,28.51,South,180,4.0,5.0,45,0.00,,,0.00,meteohub,2013-07-10 09:13:00,
2013-07-10 04:18:00,82.9,59.4,28.51,SE,135,2.0,5.0,45,0.00,,,0.00,meteohub,2013-07-10 09:18:00,
2013-07-10 04:23:00,82.6,59.0,28.51,SE,135,1.0,5.0,45,0.00,,,0.00,meteohub,2013-07-10 09:23:00,
2013-07-10 04:28:00,82.8,59.2,28.51,East,90,1.0,5.0,45,0.00,,,0.00,meteohub,2013-07-10 09:28:00,
2013-07-10 04:33:00,82.4,59.5,28.51,South,180,1.0,5.0,46,0.00,,,0.00,meteohub,2013-07-10 09:33:00,
2013-07-10 04:38:00,82.0,59.2,28.51,South,180,3.0,3.0,46,0.00,,,0.00,meteohub,2013-07-10 09:38:00,
2013-07-10 04:43:00,82.4,59.5,28.51,South,180,2.0,3.0,46,0.00,,,0.00,meteohub,2013-07-10 09:43:00,
2013-07-10 04:48:00,82.0,59.2,28.51,East,90,1.0,7.0,46,0.00,,,0.00,meteohub,2013-07-10 09:48:00,
2013-07-10 04:53:00,81.9,59.0,28.51,East,90,2.0,7.0,46,0.00,,,0.00,meteohub,2013-07-10 09:53:00,
2013-07-10 04:59:00,81.7,59.5,28.51,East,90,1.0,6.0,47,0.00,,,0.00,meteohub,2013-07-10 09:59:00,
2013-07-10 05:04:00,81.5,59.4,28.51,East,90,1.0,2.0,47,0.00,,,0.00,meteohub,2013-07-10 10:04:00,
2013-07-10 05:09:00,81.5,59.4,28.51,South,180,4.0,4.0,47,0.00,,,0.00,meteohub,2013-07-10 10:09:00,
2013-07-10 05:14:00,81.3,59.2,28.51,SE,135,0.0,4.0,47,0.00,,,0.00,meteohub,2013-07-10 10:14:00,
2013-07-10 05:19:00,81.3,59.2,28.51,SE,135,1.0,4.0,47,0.00,,,0.00,meteohub,2013-07-10 10:19:00,
2013-07-10 05:24:00,81.1,59.5,28.51,SSW,203,3.0,4.0,48,0.00,,,0.00,meteohub,2013-07-10 10:24:00,
2013-07-10 05:29:00,81.1,59.5,28.51,South,180,1.0,4.0,48,0.00,,,0.00,meteohub,2013-07-10 10:29:00,
2013-07-10 05:34:00,81.1,59.5,28.51,East,90,1.0,4.0,48,0.00,,,0.00,meteohub,2013-07-10 10:34:00,
2013-07-10 05:39:00,80.8,59.2,28.51,South,180,2.0,4.0,48,0.00,,,0.00,meteohub,2013-07-10 10:39:00,
2013-07-10 05:44:00,80.6,59.7,28.51,South,180,4.0,4.0,49,0.00,,,0.00,meteohub,2013-07-10 10:44:00,
2013-07-10 05:49:00,80.6,59.7,28.52,SSE,158,4.0,4.0,49,0.00,,,0.00,meteohub,2013-07-10 10:49:00,
2013-07-10 05:54:00,80.4,59.5,28.52,South,180,2.0,5.0,49,0.00,,,0.00,meteohub,2013-07-10 10:54:00,
2013-07-10 05:59:00,80.2,59.4,28.52,SE,135,1.0,5.0,49,0.00,,,0.00,meteohub,2013-07-10 10:59:00,
2013-07-10 06:04:00,80.1,59.7,28.53,SE,135,1.0,5.0,50,0.00,,,0.00,meteohub,2013-07-10 11:04:00,
2013-07-10 06:09:00,79.9,59.5,28.53,NW,315,1.0,4.0,50,0.00,,,0.00,meteohub,2013-07-10 11:09:00,
2013-07-10 06:14:00,79.5,59.7,28.52,SE,135,1.0,2.0,51,0.00,,,0.00,meteohub,2013-07-10 11:14:00,
2013-07-10 06:19:00,79.3,59.7,28.53,SSE,158,1.0,1.0,51,0.00,,,0.00,meteohub,2013-07-10 11:19:00,
2013-07-10 06:24:00,79.5,59.7,28.53,South,180,3.0,3.0,51,0.00,,,0.00,meteohub,2013-07-10 11:24:00,
2013-07-10 06:29:00,79.3,59.7,28.53,SE,135,1.0,3.0,51,0.00,,,0.00,meteohub,2013-07-10 11:29:00,
2013-07-10 06:34:00,79.2,59.5,28.53,WSW,248,1.0,3.0,51,0.00,,,0.00,meteohub,2013-07-10 11:34:00,
2013-07-10 06:39:00,79.2,59.5,28.54,South,180,1.0,3.0,51,0.00,,,0.00,meteohub,2013-07-10 11:39:00,
2013-07-10 06:44:00,79.0,59.4,28.54,South,180,1.0,2.0,51,0.00,,,0.00,meteohub,2013-07-10 11:44:00,
2013-07-10 06:49:00,79.3,60.3,28.54,SSE,158,1.0,1.0,52,0.00,,,0.00,meteohub,2013-07-10 11:49:00,
2013-07-10 06:54:00,79.2,60.1,28.54,South,180,1.0,1.0,52,0.00,,,0.00,meteohub,2013-07-10 11:54:00,
2013-07-10 06:59:00,79.2,60.1,28.54,East,90,1.0,1.0,52,0.00,,,0.00,meteohub,2013-07-10 11:59:00,
2013-07-10 07:04:00,79.0,59.9,28.54,South,180,1.0,1.0,52,0.00,,,0.00,meteohub,2013-07-10 12:04:00,
2013-07-10 07:09:00,79.0,59.9,28.54,South,180,1.0,1.0,52,0.00,,,0.00,meteohub,2013-07-10 12:09:00,
2013-07-10 07:14:00,78.8,59.7,28.54,SE,135,1.0,1.0,52,0.00,,,0.00,meteohub,2013-07-10 12:14:00,
2013-07-10 07:19:00,79.2,60.1,28.54,South,180,0.0,2.0,52,0.00,,,0.00,meteohub,2013-07-10 12:19:00,
2013-07-10 07:24:00,79.0,59.9,28.54,South,180,0.0,2.0,52,0.00,,,0.00,meteohub,2013-07-10 12:24:00,
2013-07-10 07:29:00,79.2,60.1,28.54,South,180,1.0,2.0,52,0.00,,,0.00,meteohub,2013-07-10 12:29:00,
2013-07-10 07:34:00,79.3,60.3,28.54,South,180,1.0,2.0,52,0.00,,,0.00,meteohub,2013-07-10 12:34:00,
2013-07-10 07:39:00,79.2,60.1,28.54,South,180,1.0,2.0,52,0.00,,,0.00,meteohub,2013-07-10 12:39:00,
2013-07-10 07:44:00,79.5,60.4,28.54,South,180,3.0,4.0,52,0.00,,,0.00,meteohub,2013-07-10 12:44:00,
2013-07-10 07:49:00,79.5,60.4,28.54,South,180,0.0,4.0,52,0.00,,,0.00,meteohub,2013-07-10 12:49:00,
2013-07-10 07:54:00,79.9,60.1,28.55,South,180,1.0,4.0,51,0.00,,,0.00,meteohub,2013-07-10 12:54:00,
2013-07-10 07:59:00,80.1,60.3,28.55,SE,135,1.0,4.0,51,0.00,,,0.00,meteohub,2013-07-10 12:59:00,
2013-07-10 08:05:00,80.4,60.6,28.55,SE,135,1.0,4.0,51,0.00,,,0.00,meteohub,2013-07-10 13:05:00,
2013-07-10 08:10:00,80.8,60.4,28.55,SW,225,0.0,4.0,50,0.00,,,0.00,meteohub,2013-07-10 13:10:00,
2013-07-10 08:15:00,81.0,60.1,28.54,SW,225,1.0,4.0,49,0.00,,,0.00,meteohub,2013-07-10 13:15:00,
2013-07-10 08:20:00,81.7,60.1,28.54,SE,135,0.0,2.0,48,0.00,,,0.00,meteohub,2013-07-10 13:20:00,
2013-07-10 08:25:00,82.6,60.3,28.55,South,180,2.0,2.0,47,0.00,,,0.00,meteohub,2013-07-10 13:25:00,
2013-07-10 08:30:00,83.5,60.4,28.55,South,180,3.0,3.0,46,0.00,,,0.00,meteohub,2013-07-10 13:30:00,
2013-07-10 08:35:00,84.4,60.1,28.55,SW,225,3.0,4.0,44,0.00,,,0.00,meteohub,2013-07-10 13:35:00,
2013-07-10 08:40:00,84.7,59.7,28.56,West,270,7.0,7.0,43,0.00,,,0.00,meteohub,2013-07-10 13:40:00,
2013-07-10 08:45:00,85.6,59.9,28.55,South,180,2.0,7.0,42,0.00,,,0.00,meteohub,2013-07-10 13:45:00,
2013-07-10 08:50:00,86.2,59.7,28.55,WSW,248,7.0,7.0,41,0.00,,,0.00,meteohub,2013-07-10 13:50:00,
2013-07-10 08:55:00,86.7,60.3,28.55,SW,225,4.0,7.0,41,0.00,,,0.00,meteohub,2013-07-10 13:55:00,
2013-07-10 09:00:00,86.9,59.7,28.54,South,180,8.0,11.0,40,0.00,,,0.00,meteohub,2013-07-10 14:00:00,
2013-07-10 09:05:00,87.4,60.1,28.55,WSW,248,6.0,11.0,40,0.00,,,0.00,meteohub,2013-07-10 14:05:00,
2013-07-10 09:10:00,87.8,59.7,28.55,West,270,7.0,11.0,39,0.00,,,0.00,meteohub,2013-07-10 14:10:00,
2013-07-10 09:15:00,88.7,59.9,28.55,WSW,248,8.0,11.0,38,0.00,,,0.00,meteohub,2013-07-10 14:15:00,
2013-07-10 09:20:00,89.2,59.5,28.55,SW,225,11.0,11.0,37,0.00,,,0.00,meteohub,2013-07-10 14:20:00,
2013-07-10 09:25:00,90.3,59.7,28.55,SW,225,14.0,14.0,36,0.00,,,0.00,meteohub,2013-07-10 14:25:00,
2013-07-10 09:30:00,90.9,59.4,28.55,SW,225,15.0,15.0,35,0.00,,,0.00,meteohub,2013-07-10 14:30:00,
2013-07-10 09:35:00,91.0,59.5,28.55,SW,225,15.0,15.0,35,0.00,,,0.00,meteohub,2013-07-10 14:35:00,
2013-07-10 09:40:00,91.2,59.7,28.55,NW,315,16.0,18.0,35,0.00,,,0.00,meteohub,2013-07-10 14:40:00,
2013-07-10 09:45:00,91.2,59.7,28.55,SW,225,18.0,23.0,35,0.00,,,0.00,meteohub,2013-07-10 14:45:00,
2013-07-10 09:50:00,91.4,59.9,28.55,West,270,20.0,23.0,35,0.00,,,0.00,meteohub,2013-07-10 14:50:00,
2013-07-10 09:55:00,91.9,59.5,28.55,SW,225,11.0,23.0,34,0.00,,,0.00,meteohub,2013-07-10 14:55:00,
2013-07-10 10:00:00,92.3,59.9,28.54,SSE,158,15.0,20.0,34,0.00,,,0.00,meteohub,2013-07-10 15:00:00,
2013-07-10 10:05:00,93.0,59.7,28.54,SW,225,16.0,20.0,33,0.00,,,0.00,meteohub,2013-07-10 15:05:00,
2013-07-10 10:10:00,92.8,59.5,28.54,West,270,16.0,24.0,33,0.00,,,0.00,meteohub,2013-07-10 15:10:00,
2013-07-10 10:15:00,93.6,59.2,28.54,SW,225,15.0,24.0,32,0.00,,,0.00,meteohub,2013-07-10 15:15:00,
2013-07-10 10:20:00,93.9,58.6,28.54,NW,315,20.0,24.0,31,0.00,,,0.00,meteohub,2013-07-10 15:20:00,
2013-07-10 10:25:00,93.7,60.3,28.53,SW,225,8.0,21.0,33,0.00,,,0.00,meteohub,2013-07-10 15:25:00,
2013-07-10 10:30:00,94.3,58.1,28.54,SW,225,13.0,21.0,30,0.00,,,0.00,meteohub,2013-07-10 15:30:00,
2013-07-10 10:35:00,94.8,58.5,28.54,SW,225,11.0,21.0,30,0.00,,,0.00,meteohub,2013-07-10 15:35:00,
2013-07-10 10:40:00,95.2,57.9,28.54,SW,225,11.0,18.0,29,0.00,,,0.00,meteohub,2013-07-10 15:40:00,
2013-07-10 10:45:00,95.2,58.8,28.54,West,270,16.0,16.0,30,0.00,,,0.00,meteohub,2013-07-10 15:45:00,
2013-07-10 10:50:00,95.4,59.0,28.54,SW,225,15.0,16.0,30,0.00,,,0.00,meteohub,2013-07-10 15:50:00,
2013-07-10 10:56:00,95.5,59.2,28.54,SW,225,10.0,19.0,30,0.00,,,0.00,meteohub,2013-07-10 15:56:00,
2013-07-10 11:01:00,95.0,58.6,28.54,West,270,15.0,19.0,30,0.00,,,0.00,meteohub,2013-07-10 16:01:00,
2013-07-10 11:06:00,95.2,57.9,28.54,West,270,8.0,19.0,29,0.00,,,0.00,meteohub,2013-07-10 16:06:00,
2013-07-10 11:11:00,95.4,59.0,28.54,South,180,8.0,16.0,30,0.00,,,0.00,meteohub,2013-07-10 16:11:00,
2013-07-10 11:16:00,96.3,58.8,28.53,SSE,158,8.0,15.0,29,0.00,,,0.00,meteohub,2013-07-10 16:16:00,
2013-07-10 11:21:00,96.8,58.3,28.54,South,180,16.0,16.0,28,0.00,,,0.00,meteohub,2013-07-10 16:21:00,
2013-07-10 11:26:00,95.9,58.5,28.54,SW,225,17.0,17.0,29,0.00,,,0.00,meteohub,2013-07-10 16:26:00,
2013-07-10 11:31:00,95.5,58.3,28.54,SW,225,14.0,17.0,29,0.00,,,0.00,meteohub,2013-07-10 16:31:00,
2013-07-10 11:36:00,95.7,58.5,28.54,West,270,11.0,18.0,29,0.00,,,0.00,meteohub,2013-07-10 16:36:00,
2013-07-10 11:41:00,96.4,57.9,28.54,SE,135,12.0,18.0,28,0.00,,,0.00,meteohub,2013-07-10 16:41:00,
2013-07-10 11:46:00,96.6,57.2,28.54,NW,315,12.0,18.0,27,0.00,,,0.00,meteohub,2013-07-10 16:46:00,
2013-07-10 11:51:00,96.4,57.0,28.54,West,270,11.0,16.0,27,0.00,,,0.00,meteohub,2013-07-10 16:51:00,
2013-07-10 11:56:00,96.8,57.4,28.54,SW,225,15.0,16.0,27,0.00,,,0.00,meteohub,2013-07-10 16:56:00,
2013-07-10 12:01:00,97.0,57.4,28.53,SW,225,11.0,17.0,27,0.00,,,0.00,meteohub,2013-07-10 17:01:00,
2013-07-10 12:06:00,97.7,57.0,28.53,NW,315,5.0,17.0,26,0.00,,,0.00,meteohub,2013-07-10 17:06:00,
2013-07-10 12:11:00,98.1,55.0,28.53,NW,315,10.0,17.0,24,0.00,,,0.00,meteohub,2013-07-10 17:11:00,
2013-07-10 12:16:00,98.2,56.3,28.53,SE,135,3.0,13.0,25,0.00,,,0.00,meteohub,2013-07-10 17:16:00,
2013-07-10 12:21:00,98.2,55.2,28.53,SW,225,6.0,13.0,24,0.00,,,0.00,meteohub,2013-07-10 17:21:00,
2013-07-10 12:26:00,97.9,56.1,28.52,SE,135,6.0,15.0,25,0.00,,,0.00,meteohub,2013-07-10 17:26:00,
2013-07-10 12:31:00,98.6,55.6,28.52,SW,225,11.0,15.0,24,0.00,,,0.00,meteohub,2013-07-10 17:31:00,
2013-07-10 12:36:00,99.0,55.9,28.52,NW,315,4.0,15.0,24,0.00,,,0.00,meteohub,2013-07-10 17:36:00,
2013-07-10 12:41:00,99.5,55.2,28.52,SW,225,14.0,14.0,23,0.00,,,0.00,meteohub,2013-07-10 17:41:00,
2013-07-10 12:46:00,99.1,54.9,28.52,SW,225,12.0,15.0,23,0.00,,,0.00,meteohub,2013-07-10 17:46:00,
2013-07-10 12:51:00,99.1,55.9,28.51,SE,135,4.0,15.0,24,0.00,,,0.00,meteohub,2013-07-10 17:51:00,
2013-07-10 12:56:00,100.4,54.7,28.52,SW,225,2.0,15.0,22,0.00,,,0.00,meteohub,2013-07-10 17:56:00,
2013-07-10 13:01:00,100.4,54.7,28.51,SE,135,8.0,13.0,22,0.00,,,0.00,meteohub,2013-07-10 18:01:00,
2013-07-10 13:06:00,100.4,54.7,28.51,SW,225,2.0,9.0,22,0.00,,,0.00,meteohub,2013-07-10 18:06:00,
2013-07-10 13:11:00,100.2,54.5,28.51,West,270,8.0,9.0,22,0.00,,,0.00,meteohub,2013-07-10 18:11:00,
2013-07-10 13:16:00,100.8,55.0,28.51,South,180,6.0,9.0,22,0.00,,,0.00,meteohub,2013-07-10 18:16:00,
2013-07-10 13:21:00,101.3,54.1,28.51,SE,135,6.0,8.0,21,0.00,,,0.00,meteohub,2013-07-10 18:21:00,
2013-07-10 13:26:00,101.7,55.8,28.51,NE,45,0.0,12.0,22,0.00,,,0.00,meteohub,2013-07-10 18:26:00,
2013-07-10 13:31:00,103.3,54.3,28.51,East,90,5.0,12.0,20,0.00,,,0.00,meteohub,2013-07-10 18:31:00,
2013-07-10 13:37:00,102.7,52.5,28.51,South,180,9.0,9.0,19,0.00,,,0.00,meteohub,2013-07-10 18:37:00,
2013-07-10 13:42:00,102.0,53.4,28.50,East,90,2.0,11.0,20,0.00,,,0.00,meteohub,2013-07-10 18:42:00,
2013-07-10 13:47:00,101.3,54.1,28.50,SE,135,4.0,11.0,21,0.00,,,0.00,meteohub,2013-07-10 18:47:00,
2013-07-10 13:52:00,100.8,55.0,28.50,SE,135,9.0,12.0,22,0.00,,,0.00,meteohub,2013-07-10 18:52:00,
2013-07-10 13:57:00,100.9,55.0,28.50,SE,135,6.0,13.0,22,0.00,,,0.00,meteohub,2013-07-10 18:57:00,
2013-07-10 14:02:00,101.1,56.5,28.50,SW,225,2.0,13.0,23,0.00,,,0.00,meteohub,2013-07-10 19:02:00,
2013-07-10 14:07:00,101.1,54.0,28.50,SE,135,11.0,13.0,21,0.00,,,0.00,meteohub,2013-07-10 19:07:00,
2013-07-10 14:12:00,101.1,54.0,28.50,SE,135,5.0,11.0,21,0.00,,,0.00,meteohub,2013-07-10 19:12:00,
2013-07-10 14:17:00,101.8,54.5,28.49,East,90,2.0,11.0,21,0.00,,,0.00,meteohub,2013-07-10 19:17:00,
2013-07-10 14:22:00,101.8,53.2,28.50,SE,135,8.0,11.0,20,0.00,,,0.00,meteohub,2013-07-10 19:22:00,
2013-07-10 14:27:00,101.1,54.0,28.50,South,180,1.0,10.0,21,0.00,,,0.00,meteohub,2013-07-10 19:27:00,
2013-07-10 14:32:00,101.7,53.1,28.49,NW,315,11.0,11.0,20,0.00,,,0.00,meteohub,2013-07-10 19:32:00,
2013-07-10 14:37:00,102.6,53.8,28.49,South,180,6.0,11.0,20,0.00,,,0.00,meteohub,2013-07-10 19:37:00,
2013-07-10 14:42:00,101.7,53.1,28.49,South,180,6.0,11.0,20,0.00,,,0.00,meteohub,2013-07-10 19:42:00,
2013-07-10 14:47:00,101.5,52.9,28.49,SE,135,7.0,11.0,20,0.00,,,0.00,meteohub,2013-07-10 19:47:00,
2013-07-10 14:52:00,101.5,54.3,28.49,East,90,5.0,12.0,21,0.00,,,0.00,meteohub,2013-07-10 19:52:00,
2013-07-10 14:57:00,101.3,54.1,28.49,SE,135,1.0,12.0,21,0.00,,,0.00,meteohub,2013-07-10 19:57:00,
2013-07-10 15:02:00,100.9,55.0,28.48,SE,135,6.0,12.0,22,0.00,,,0.00,meteohub,2013-07-10 20:02:00,
2013-07-10 15:07:00,100.8,55.0,28.48,East,90,3.0,8.0,22,0.00,,,0.00,meteohub,2013-07-10 20:07:00,
2013-07-10 15:12:00,100.6,54.9,28.48,East,90,2.0,8.0,22,0.00,,,0.00,meteohub,2013-07-10 20:12:00,
2013-07-10 15:17:00,99.7,55.2,28.48,NW,315,3.0,8.0,23,0.00,,,0.00,meteohub,2013-07-10 20:17:00,
2013-07-10 15:22:00,100.0,55.6,28.48,SE,135,6.0,8.0,23,0.00,,,0.00,meteohub,2013-07-10 20:22:00,
2013-07-10 15:27:00,100.2,54.5,28.48,NW,315,5.0,12.0,22,0.00,,,0.00,meteohub,2013-07-10 20:27:00,
2013-07-10 15:32:00,101.3,54.1,28.48,South,180,6.0,12.0,21,0.00,,,0.00,meteohub,2013-07-10 20:32:00,
2013-07-10 15:37:00,102.0,52.0,28.48,South,180,9.0,11.0,19,0.00,,,0.00,meteohub,2013-07-10 20:37:00,
2013-07-10 15:42:00,101.8,53.2,28.48,SW,225,2.0,11.0,20,0.00,,,0.00,meteohub,2013-07-10 20:42:00,
2013-07-10 15:47:00,101.7,54.5,28.48,East,90,8.0,11.0,21,0.00,,,0.00,meteohub,2013-07-10 20:47:00,
2013-07-10 15:52:00,102.6,53.8,28.47,SW,225,6.0,10.0,20,0.00,,,0.00,meteohub,2013-07-10 20:52:00,
2013-07-10 15:57:00,104.0,55.0,28.47,SW,225,2.0,10.0,20,0.00,,,0.00,meteohub,2013-07-10 20:57:00,
2013-07-10 16:02:00,104.0,52.2,28.47,North,0,2.0,10.0,18,0.00,,,0.00,meteohub,2013-07-10 21:02:00,
2013-07-10 16:07:00,102.4,52.3,28.46,East,90,8.0,10.0,19,0.00,,,0.00,meteohub,2013-07-10 21:07:00,
2013-07-10 16:12:00,101.8,53.2,28.46,NE,45,1.0,8.0,20,0.00,,,0.00,meteohub,2013-07-10 21:12:00,
2013-07-10 16:17:00,101.7,53.1,28.46,East,90,7.0,8.0,20,0.00,,,0.00,meteohub,2013-07-10 21:17:00,
2013-07-10 16:18:00,101.7,53.1,28.46,East,90,7.0,8.0,20,0.00,,,0.00,meteohub,2013-07-10 21:18:00,
2013-07-10 16:23:00,102.2,52.2,28.46,SE,135,8.0,8.0,19,0.00,,,0.00,meteohub,2013-07-10 21:23:00,
2013-07-10 16:28:00,102.0,53.4,28.46,SW,225,10.0,11.0,20,0.00,,,0.00,meteohub,2013-07-10 21:28:00,
2013-07-10 16:33:00,103.1,52.9,28.45,SE,135,4.0,11.0,19,0.00,,,0.00,meteohub,2013-07-10 21:33:00,
2013-07-10 16:38:00,103.6,51.8,28.45,East,90,9.0,11.0,18,0.00,,,0.00,meteohub,2013-07-10 21:38:00,
2013-07-10 16:43:00,103.6,51.8,28.45,South,180,4.0,11.0,18,0.00,,,0.00,meteohub,2013-07-10 21:43:00,
2013-07-10 16:48:00,102.7,51.1,28.44,SSE,158,9.0,11.0,18,0.00,,,0.00,meteohub,2013-07-10 21:48:00,
2013-07-10 16:53:00,103.3,51.6,28.44,SW,225,9.0,13.0,18,0.00,,,0.00,meteohub,2013-07-10 21:53:00,
2013-07-10 16:58:00,104.0,50.5,28.44,SE,135,8.0,13.0,17,0.00,,,0.00,meteohub,2013-07-10 21:58:00,
2013-07-10 17:03:00,102.2,52.2,28.44,East,90,4.0,11.0,19,0.00,,,0.00,meteohub,2013-07-10 22:03:00,
2013-07-10 17:08:00,102.4,52.3,28.43,South,180,11.0,11.0,19,0.00,,,0.00,meteohub,2013-07-10 22:08:00,
2013-07-10 17:13:00,103.1,52.9,28.43,South,180,12.0,12.0,19,0.00,,,0.00,meteohub,2013-07-10 22:13:00,
2013-07-10 17:18:00,103.5,53.2,28.43,SE,135,4.0,11.0,19,0.00,,,0.00,meteohub,2013-07-10 22:18:00,
2013-07-10 17:23:00,103.8,52.0,28.43,SE,135,4.0,12.0,18,0.00,,,0.00,meteohub,2013-07-10 22:23:00,
2013-07-10 17:28:00,103.8,52.0,28.43,SW,225,8.0,12.0,18,0.00,,,0.00,meteohub,2013-07-10 22:28:00,
2013-07-10 17:33:00,104.2,50.7,28.42,East,90,8.0,12.0,17,0.00,,,0.00,meteohub,2013-07-10 22:33:00,
2013-07-10 17:38:00,104.0,53.6,28.42,North,0,4.0,12.0,19,0.00,,,0.00,meteohub,2013-07-10 22:38:00,
2013-07-10 17:43:00,104.4,52.3,28.42,East,90,4.0,12.0,18,0.00,,,0.00,meteohub,2013-07-10 22:43:00,
2013-07-10 17:48:00,104.2,49.1,28.41,SE,135,2.0,10.0,16,0.00,,,0.00,meteohub,2013-07-10 22:48:00,
2013-07-10 17:53:00,103.6,50.4,28.41,South,180,15.0,15.0,17,0.00,,,0.00,meteohub,2013-07-10 22:53:00,
2013-07-10 17:58:00,103.3,51.6,28.41,SW,225,5.0,11.0,18,0.00,,,0.00,meteohub,2013-07-10 22:58:00,
2013-07-10 18:03:00,103.3,51.6,28.41,East,90,7.0,15.0,18,0.00,,,0.00,meteohub,2013-07-10 23:03:00,
2013-07-10 18:08:00,103.5,50.2,28.41,East,90,8.0,15.0,17,0.00,,,0.00,meteohub,2013-07-10 23:08:00,
2013-07-10 18:13:00,103.6,50.4,28.41,SW,225,9.0,13.0,17,0.00,,,0.00,meteohub,2013-07-10 23:13:00,
2013-07-10 18:18:00,103.1,49.8,28.41,South,180,14.0,14.0,17,0.00,,,0.00,meteohub,2013-07-10 23:18:00,
2013-07-10 18:23:00,103.1,51.4,28.41,East,90,3.0,9.0,18,0.00,,,0.00,meteohub,2013-07-10 23:23:00,
2013-07-10 18:28:00,102.9,51.3,28.40,SE,135,6.0,14.0,18,0.00,,,0.00,meteohub,2013-07-10 23:28:00,
2013-07-10 18:33:00,103.3,50.0,28.40,SE,135,4.0,14.0,17,0.00,,,0.00,meteohub,2013-07-10 23:33:00,
2013-07-10 18:38:00,103.5,50.2,28.40,East,90,6.0,9.0,17,0.00,,,0.00,meteohub,2013-07-10 23:38:00,
2013-07-10 18:43:00,103.6,48.7,28.40,East,90,1.0,9.0,16,0.00,,,0.00,meteohub,2013-07-10 23:43:00,
2013-07-10 18:48:00,103.5,48.6,28.40,South,180,5.0,8.0,16,0.00,,,0.00,meteohub,2013-07-10 23:48:00,
2013-07-10 18:53:00,102.7,48.0,28.40,South,180,11.0,11.0,16,0.00,,,0.00,meteohub,2013-07-10 23:53:00,
2013-07-10 18:58:00,102.9,49.6,28.40,SW,225,2.0,11.0,17,0.00,,,0.00,meteohub,2013-07-10 23:58:00,
2013-07-10 19:03:00,102.6,49.5,28.40,NE,45,4.0,11.0,17,0.00,,,0.00,meteohub,2013-07-11 00:03:00,
2013-07-10 19:08:00,102.7,49.6,28.40,East,90,8.0,11.0,17,0.00,,,0.00,meteohub,2013-07-11 00:08:00,
2013-07-10 19:14:00,101.7,48.7,28.40,East,90,8.0,8.0,17,0.00,,,0.00,meteohub,2013-07-11 00:14:00,
2013-07-10 19:18:00,101.3,50.0,28.40,SE,135,5.0,11.0,18,0.00,,,0.00,meteohub,2013-07-11 00:18:00,
2013-07-10 19:24:00,100.8,49.5,28.40,SE,135,4.0,11.0,18,0.00,,,0.00,meteohub,2013-07-11 00:24:00,
2013-07-10 19:29:00,100.4,49.3,28.40,East,90,2.0,11.0,18,0.00,,,0.00,meteohub,2013-07-11 00:29:00,
2013-07-10 19:34:00,99.9,50.2,28.40,South,180,6.0,11.0,19,0.00,,,0.00,meteohub,2013-07-11 00:34:00,
2013-07-10 19:39:00,99.3,49.8,28.40,South,180,4.0,11.0,19,0.00,,,0.00,meteohub,2013-07-11 00:39:00,
2013-07-10 19:44:00,99.3,49.8,28.40,East,90,4.0,10.0,19,0.00,,,0.00,meteohub,2013-07-11 00:44:00,
2013-07-10 19:49:00,99.1,49.6,28.40,SE,135,1.0,8.0,19,0.00,,,0.00,meteohub,2013-07-11 00:49:00,
2013-07-10 19:54:00,98.8,49.3,28.40,East,90,1.0,8.0,19,0.00,,,0.00,meteohub,2013-07-11 00:54:00,
2013-07-10 19:59:00,98.8,49.3,28.40,SE,135,1.0,8.0,19,0.00,,,0.00,meteohub,2013-07-11 00:59:00,
2013-07-10 20:04:00,99.0,49.5,28.40,East,90,1.0,4.0,19,0.00,,,0.00,meteohub,2013-07-11 01:04:00,
2013-07-10 20:09:00,98.8,50.7,28.40,South,180,4.0,4.0,20,0.00,,,0.00,meteohub,2013-07-11 01:09:00,
2013-07-10 20:14:00,98.6,50.5,28.40,SE,135,1.0,4.0,20,0.00,,,0.00,meteohub,2013-07-11 01:14:00,
2013-07-10 20:19:00,98.1,50.2,28.40,SE,135,2.0,4.0,20,0.00,,,0.00,meteohub,2013-07-11 01:19:00,
2013-07-10 20:24:00,98.2,51.6,28.40,East,90,4.0,4.0,21,0.00,,,0.00,meteohub,2013-07-11 01:24:00,
2013-07-10 20:29:00,98.2,51.6,28.40,East,90,2.0,4.0,21,0.00,,,0.00,meteohub,2013-07-11 01:29:00,
2013-07-10 20:34:00,98.1,52.7,28.40,East,90,6.0,6.0,22,0.00,,,0.00,meteohub,2013-07-11 01:34:00,
2013-07-10 20:39:00,97.5,52.3,28.40,East,90,1.0,6.0,22,0.00,,,0.00,meteohub,2013-07-11 01:39:00,
2013-07-10 20:44:00,97.2,52.0,28.40,SE,135,1.0,6.0,22,0.00,,,0.00,meteohub,2013-07-11 01:44:00,
2013-07-10 20:49:00,96.8,52.9,28.40,West,270,1.0,6.0,23,0.00,,,0.00,meteohub,2013-07-11 01:49:00,
2013-07-10 20:54:00,96.6,52.7,28.40,SW,225,4.0,5.0,23,0.00,,,0.00,meteohub,2013-07-11 01:54:00,
2013-07-10 20:59:00,96.1,52.3,28.40,SE,135,1.0,5.0,23,0.00,,,0.00,meteohub,2013-07-11 01:59:00,
2013-07-10 21:04:00,95.9,53.2,28.40,SSE,158,1.0,4.0,24,0.00,,,0.00,meteohub,2013-07-11 02:04:00,
2013-07-10 21:09:00,95.7,53.2,28.40,SE,135,1.0,4.0,24,0.00,,,0.00,meteohub,2013-07-11 02:09:00,
2013-07-10 21:14:00,95.4,52.9,28.41,East,90,2.0,2.0,24,0.00,,,0.00,meteohub,2013-07-11 02:14:00,
2013-07-10 21:19:00,95.2,52.7,28.41,SE,135,1.0,3.0,24,0.00,,,0.00,meteohub,2013-07-11 02:19:00,
2013-07-10 21:24:00,95.2,53.8,28.41,SE,135,1.0,3.0,25,0.00,,,0.00,meteohub,2013-07-11 02:24:00,
2013-07-10 21:29:00,94.6,53.4,28.41,SE,135,1.0,3.0,25,0.00,,,0.00,meteohub,2013-07-11 02:29:00,
2013-07-10 21:34:00,94.3,53.1,28.41,SE,135,1.0,2.0,25,0.00,,,0.00,meteohub,2013-07-11 02:34:00,
2013-07-10 21:40:00,94.3,53.1,28.42,East,90,1.0,2.0,25,0.00,,,0.00,meteohub,2013-07-11 02:40:00,
2013-07-10 21:45:00,93.9,53.8,28.42,East,90,1.0,2.0,26,0.00,,,0.00,meteohub,2013-07-11 02:45:00,
2013-07-10 21:50:00,94.1,54.0,28.42,East,90,2.0,2.0,26,0.00,,,0.00,meteohub,2013-07-11 02:50:00,
2013-07-10 21:55:00,93.7,53.6,28.42,East,90,1.0,1.0,26,0.00,,,0.00,meteohub,2013-07-11 02:55:00,
2013-07-10 22:00:00,94.1,54.0,28.42,SE,135,1.0,4.0,26,0.00,,,0.00,meteohub,2013-07-11 03:00:00,
2013-07-10 22:05:00,93.7,53.6,28.42,ENE,68,1.0,4.0,26,0.00,,,0.00,meteohub,2013-07-11 03:05:00,
2013-07-10 22:10:00,93.4,54.3,28.43,NE,45,1.0,2.0,27,0.00,,,0.00,meteohub,2013-07-11 03:10:00,
2013-07-10 22:15:00,93.2,54.3,28.43,SE,135,2.0,5.0,27,0.00,,,0.00,meteohub,2013-07-11 03:15:00,
2013-07-10 22:20:00,93.2,54.3,28.43,NE,45,1.0,5.0,27,0.00,,,0.00,meteohub,2013-07-11 03:20:00,
2013-07-10 22:25:00,92.8,54.9,28.44,East,90,1.0,5.0,28,0.00,,,0.00,meteohub,2013-07-11 03:25:00,
2013-07-10 22:30:00,93.0,55.0,28.44,SE,135,1.0,3.0,28,0.00,,,0.00,meteohub,2013-07-11 03:30:00,
2013-07-10 22:35:00,92.7,54.9,28.44,SE,135,1.0,2.0,28,0.00,,,0.00,meteohub,2013-07-11 03:35:00,
2013-07-10 22:40:00,92.5,54.7,28.44,SE,135,1.0,2.0,28,0.00,,,0.00,meteohub,2013-07-11 03:40:00,
2013-07-10 22:45:00,92.3,55.4,28.45,East,90,1.0,4.0,29,0.00,,,0.00,meteohub,2013-07-11 03:45:00,
2013-07-10 22:50:00,92.3,55.4,28.45,East,90,1.0,4.0,29,0.00,,,0.00,meteohub,2013-07-11 03:50:00,
2013-07-10 22:55:00,92.1,55.2,28.45,East,90,1.0,1.0,29,0.00,,,0.00,meteohub,2013-07-11 03:55:00,
2013-07-10 23:00:00,92.1,55.2,28.45,East,90,1.0,1.0,29,0.00,,,0.00,meteohub,2013-07-11 04:00:00,
2013-07-10 23:01:00,92.1,55.2,28.45,East,90,1.0,1.0,29,0.00,,,0.00,meteohub,2013-07-11 04:01:00,
2013-07-10 23:02:00,92.1,55.2,28.45,East,90,1.0,1.0,29,0.00,,,0.00,meteohub,2013-07-11 04:02:00,
2013-07-10 23:03:00,92.1,55.2,28.45,East,90,2.0,2.0,29,0.00,,,0.00,meteohub,2013-07-11 04:03:00,
2013-07-10 23:08:00,91.9,56.1,28.45,East,90,1.0,2.0,30,0.00,,,0.00,meteohub,2013-07-11 04:08:00,
2013-07-10 23:13:00,91.8,55.9,28.45,East,90,1.0,2.0,30,0.00,,,0.00,meteohub,2013-07-11 04:13:00,
2013-07-10 23:18:00,91.2,55.4,28.45,East,90,1.0,2.0,30,0.00,,,0.00,meteohub,2013-07-11 04:18:00,
2013-07-10 23:23:00,90.9,56.1,28.45,East,90,1.0,2.0,31,0.00,,,0.00,meteohub,2013-07-11 04:23:00,
2013-07-10 23:28:00,90.3,56.5,28.45,East,90,1.0,2.0,32,0.00,,,0.00,meteohub,2013-07-11 04:28:00,
2013-07-10 23:33:00,89.6,56.7,28.45,East,90,1.0,1.0,33,0.00,,,0.00,meteohub,2013-07-11 04:33:00,
2013-07-10 23:38:00,89.4,56.5,28.46,SE,135,1.0,1.0,33,0.00,,,0.00,meteohub,2013-07-11 04:38:00,
2013-07-10 23:43:00,90.0,57.0,28.46,East,90,1.0,1.0,33,0.00,,,0.00,meteohub,2013-07-11 04:43:00,
2013-07-10 23:48:00,90.0,57.0,28.45,East,90,4.0,4.0,33,0.00,,,0.00,meteohub,2013-07-11 04:48:00,
2013-07-10 23:53:00,90.0,57.0,28.46,East,90,1.0,6.0,33,0.00,,,0.00,meteohub,2013-07-11 04:53:00,
2013-07-10 23:58:00,89.6,56.7,28.46,East,90,1.0,6.0,33,0.00,,,0.00,meteohub,2013-07-11 04:58:00,